CYGFM06 (41889 NORAD) Tracking and Keplerian Element Data

This shows tracking and keplerian element data for the satellite.

Feedback or suggestion? Click here.




ElementValue
Catalog41889
NameCYGFM06
Epoch Orbit26470
Epoch Day269.08299795
Epoch Year2021
RAAN37.9674
Inclination34.9593
Eccentricity0.001441
Argument of Perigee256.2751
Mean Anonmoly103.6357
Mean Motion15.15663171
Decay Rate1.209E-05
L11 41889U 16078F 21269.08299795 .00001209 00000-0 63656-4 0 9993
L22 41889 34.9593 37.9674 0014410 256.2751 103.6357 15.15663171264709

Live tracking and technical data element details for CYGFM06 (NORAD 41889). CYGFM06 can be tracked NOW for your location showing map with azimuth and elevation plus other details from your city location.

Track the satellite on the map from your city or location and see movement details for azimuth, elevation, latitude, longitude, range, height, and movement on the map or in text.







IsCatalogInMostPopularTable: catalog: 41889, numindb: 525
Update: records affected: 1



GetName: 41889 CYGFM06

Hit Count: updated at: Tue, 28 Sep 2021 15:53:54 GMT